(80948) = 1993 FF65 = 2000 DE96

Discovered at Socorro on 2000-02-29 by LINEAR.

Orbit

Orbit type: Main Belt

Note: WebGL enabled browser required.

epoch2023-09-13.0
epoch JD2460200.5
perihelion date2021-09-10.78460
perihelion JD2459468.28460
argument of perihelion (°)135.04190
ascending node (°)315.91796
inclination (°)4.34588
eccentricity0.0911613
perihelion distance (AU)2.1601323
Tisserand w.r.t. Jupiter3.5
ΔV w.r.t. Earth (km/sec)9.2
semimajor axis (AU)2.3768049
mean anomaly (°)196.94837
mean daily motion (°/day)0.26897600
aphelion distance (AU)2.593
period (years)3.66
P-vector [x]-0.01816524
P-vector [y]0.89471600
P-vector [z]0.44626596
Q-vector [x]-0.99844424
Q-vector [y]0.00730091
Q-vector [z]-0.05527919
absolute magnitude16.43
phase slope0.15
uncertainty0
referenceMPEC 2023-X132
observations used726
oppositions16
arc length (days)10630
first opposition used1993
last opposition used2022
residual rms (arc-secs)0.70
perturbers coarse indicatorM-v
perturbers precise indicator003Ek
first observation date used1993-03-22.0
last observation date used2022-04-29.0
computer nameMPCLINUX
JD of orbit computation2456639.635398
perihelion JD uncertainty (days)1.5625E-04
argument of perihelion uncertainty (°)7.6766E-05
ascending node uncertainty (°)6.0941E-05
inclination uncertainty (°)5.8199E-06
eccentricity uncertainty 5.0395E-08
perihelion distance uncertainty (AU)1.2605E-07
Minimum Orbit Intersection Distances (in AU)
for orbit epoch: 2460200.5, reference: E2023-XD2
Mercury1.85041
Venus1.44132
Earth1.17802
Mars0.549
Jupiter2.5374
Saturn6.89946
Uranus16.1162
Neptune27.527

Observations

746 total observations over interval: 1993 03 21.12743 – 2022 04 29.185888
These data are available for download (format description).

Date (UT) J2000 RA J2000 Dec Magn Location Ref
1993 03 21.12743 12 22 00.21 -08 30 05.3 20.3   809 – European Southern Observatory, La Silla MPC 23626
1993 03 22.12465 12 21 02.04 -08 25 43.3 20.4   809 – European Southern Observatory, La Silla MPC 23626
2000 01 30.31818 09 32 11.81 +14 39 13.6 18.7 V 691 – Steward Observatory, Kitt Peak-Spacewatch MPS 26638
2000 01 30.33949 09 32 10.43 +14 39 16.9 18.6 V 691 – Steward Observatory, Kitt Peak-Spacewatch MPS 26638
2000 01 30.37337 09 32 08.27 +14 39 21.4 19.2 V 691 – Steward Observatory, Kitt Peak-Spacewatch MPS 26638
2000 02 03.23826 09 28 06.60 +14 48 38.0 18.9   704 – Lincoln Laboratory ETS, New Mexico MPS 12287
2000 02 03.25294 09 28 05.59 +14 48 40.3 19.0   704 – Lincoln Laboratory ETS, New Mexico MPS 12287
2000 02 03.26756 09 28 04.67 +14 48 42.0 19.0   704 – Lincoln Laboratory ETS, New Mexico MPS 12287
2000 02 03.28219 09 28 03.67 +14 48 44.8 18.9   704 – Lincoln Laboratory ETS, New Mexico MPS 12287
2000 02 03.29687 09 28 02.71 +14 48 47.1 19.2   704 – Lincoln Laboratory ETS, New Mexico MPS 12287
2000 02 11.24492 09 19 32.10 +15 08 00.2 18.9   704 – Lincoln Laboratory ETS, New Mexico MPS 12287
2000 02 11.25944 09 19 31.18 +15 08 01.7 18.9   704 – Lincoln Laboratory ETS, New Mexico MPS 12287
2000 02 11.27406 09 19 30.26 +15 08 03.2 19.4   704 – Lincoln Laboratory ETS, New Mexico MPS 12287
2000 02 11.28858 09 19 29.20 +15 08 05.7 18.9   704 – Lincoln Laboratory ETS, New Mexico MPS 12287
2000 02 12.24523 09 18 28.54 +15 10 17.6 18.2 V 691 – Steward Observatory, Kitt Peak-Spacewatch MPS 12287
2000 02 12.27373 09 18 26.67 +15 10 21.7 18.3 V 691 – Steward Observatory, Kitt Peak-Spacewatch MPS 12287
2000 02 12.30217 09 18 24.80 +15 10 25.5 18.3 V 691 – Steward Observatory, Kitt Peak-Spacewatch MPS 12287
2000 02 15.31675 09 15 16.45 +15 17 07.5 18.5 V 691 – Steward Observatory, Kitt Peak-Spacewatch MPS 26638
2000 02 15.32498 09 15 15.88 +15 17 08.8 18.2 V 691 – Steward Observatory, Kitt Peak-Spacewatch MPS 26638
2000 02 15.33293 09 15 15.52 +15 17 09.4 18.2 V 691 – Steward Observatory, Kitt Peak-Spacewatch MPS 26638
2000 02 28.11792 09 03 38.01 +15 38 37.6 19.2 V 691 – Steward Observatory, Kitt Peak-Spacewatch MPS 12287
2000 02 28.14026 09 03 36.94 +15 38 39.1 19.0 V 691 – Steward Observatory, Kitt Peak-Spacewatch MPS 12287
2000 02 28.16256 09 03 35.85 +15 38 40.7 19.1 V 691 – Steward Observatory, Kitt Peak-Spacewatch MPS 12287
2000 02 29.10456 09 02 53.60 +15 39 43.0 18.9   704 – Lincoln Laboratory ETS, New Mexico MPS 11312
2000 02 29.11800 09 02 53.03 +15 39 44.4 19.8   704 – Lincoln Laboratory ETS, New Mexico MPS 11312
2000 02 29.13145 09 02 52.29 +15 39 44.0 19.9   704 – Lincoln Laboratory ETS, New Mexico MPS 11312
2000 02 29.14489 09 02 51.73 +15 39 46.1 19.6   704 – Lincoln Laboratory ETS, New Mexico MPS 11312
2000 03 05.25215 08 59 28.80 +15 43 45.8 19.3   704 – Lincoln Laboratory ETS, New Mexico MPS 11312
2000 03 05.26544 08 59 28.23 +15 43 45.0 19.2   704 – Lincoln Laboratory ETS, New Mexico MPS 11312
2000 03 05.27874 08 59 27.71 +15 43 46.7 19.1   704 – Lincoln Laboratory ETS, New Mexico MPS 11312
2000 03 05.29204 08 59 27.30 +15 43 46.6 19.6   704 – Lincoln Laboratory ETS, New Mexico MPS 11312
2000 03 09.24320 08 57 24.16 +15 45 01.5 19.5   704 – Lincoln Laboratory ETS, New Mexico MPS 11312
2000 03 09.25603 08 57 23.76 +15 45 01.7 19.8   704 – Lincoln Laboratory ETS, New Mexico MPS 11312
2000 03 09.26884 08 57 23.45 +15 45 00.7 20.1   704 – Lincoln Laboratory ETS, New Mexico MPS 11312
2000 03 09.28165 08 57 23.06 +15 45 00.8 19.7   704 – Lincoln Laboratory ETS, New Mexico MPS 11312
2002 10 03.43291 01 44 56.71 +18 11 14.7 19.7   644 – Palomar Mountain/NEAT MPS 62905
2002 10 03.44361 01 44 56.17 +18 11 12.6 19.7   644 – Palomar Mountain/NEAT MPS 62905
2002 10 03.45530 01 44 55.54 +18 11 11.8 19.6   644 – Palomar Mountain/NEAT MPS 62905
2002 10 04.32714 01 44 11.38 +18 09 16.2 19.7   704 – Lincoln Laboratory ETS, New Mexico MPS 62905
2002 10 04.34259 01 44 10.64 +18 09 14.8 20.1   704 – Lincoln Laboratory ETS, New Mexico MPS 62905
2002 10 04.35807 01 44 09.74 +18 09 12.4 19.2   704 – Lincoln Laboratory ETS, New Mexico MPS 62905
2002 10 04.37360 01 44 08.93 +18 09 09.8 19.5   704 – Lincoln Laboratory ETS, New Mexico MPS 62905
2002 10 04.38904 01 44 08.14 +18 09 06.9 19.7   704 – Lincoln Laboratory ETS, New Mexico MPS 62905
2002 10 09.25192 01 39 45.21 +17 55 39.0 18.9   704 – Lincoln Laboratory ETS, New Mexico MPS 81373
2002 10 09.28135 01 39 43.53 +17 55 33.0 19.8   704 – Lincoln Laboratory ETS, New Mexico MPS 81373
2002 10 09.31147 01 39 41.81 +17 55 27.6 19.4   704 – Lincoln Laboratory ETS, New Mexico MPS 81373
2002 10 12.25749 01 36 52.65 +17 45 13.4 19.1   704 – Lincoln Laboratory ETS, New Mexico MPS 62905
2002 10 12.27392 01 36 51.71 +17 45 10.2 19.6   704 – Lincoln Laboratory ETS, New Mexico MPS 62905
2002 10 12.29081 01 36 50.66 +17 45 05.6 19.4   704 – Lincoln Laboratory ETS, New Mexico MPS 62905
2002 10 12.30724 01 36 49.68 +17 45 01.9 19.4   704 – Lincoln Laboratory ETS, New Mexico MPS 62905
2002 10 12.32399 01 36 48.67 +17 44 57.7 19.4   704 – Lincoln Laboratory ETS, New Mexico MPS 62905
2002 11 12.19954 01 09 10.24 +15 07 45.7 19.7   704 – Lincoln Laboratory ETS, New Mexico MPS 65573
2002 11 12.21670 01 09 09.60 +15 07 40.6 19.6   704 – Lincoln Laboratory ETS, New Mexico MPS 65573
2002 11 12.23399 01 09 09.05 +15 07 34.6 19.6   704 – Lincoln Laboratory ETS, New Mexico MPS 65573
2004 03 17.36009 12 27 04.57 -08 56 49.1 19.5   704 – Lincoln Laboratory ETS, New Mexico MPS 101036
2004 03 17.37161 12 27 03.91 -08 56 46.0 19.8   704 – Lincoln Laboratory ETS, New Mexico MPS 101036
2004 03 17.38300 12 27 03.28 -08 56 43.4 20.0   704 – Lincoln Laboratory ETS, New Mexico MPS 101036
2004 03 17.39426 12 27 02.63 -08 56 41.7 19.1   704 – Lincoln Laboratory ETS, New Mexico MPS 101036
2004 03 19.35089 12 25 10.83 -08 48 51.8 19.2   704 – Lincoln Laboratory ETS, New Mexico MPS 102015
2004 03 19.37374 12 25 09.43 -08 48 46.2 19.7   704 – Lincoln Laboratory ETS, New Mexico MPS 102015
2004 03 19.38566 12 25 08.82 -08 48 41.6 19.9   704 – Lincoln Laboratory ETS, New Mexico MPS 102015
2004 03 19.39732 12 25 08.08 -08 48 40.6 19.6   704 – Lincoln Laboratory ETS, New Mexico MPS 102015
2004 03 27.23909 12 17 29.07 -08 12 55.0 19.4 R 699 – Lowell Observatory-LONEOS MPS 102924
2004 03 27.26104 12 17 27.58 -08 12 50.2   699 – Lowell Observatory-LONEOS MPS 102924
2004 03 27.28298 12 17 26.36 -08 12 43.2   699 – Lowell Observatory-LONEOS MPS 102924
2004 03 27.30497 12 17 24.89 -08 12 35.9   699 – Lowell Observatory-LONEOS MPS 102924
2004 04 16.16439 12 00 08.67 -06 32 04.1 19.5   644 – Palomar Mountain/NEAT MPS 104906
2004 04 16.18502 12 00 07.80 -06 31 58.5 19.7   644 – Palomar Mountain/NEAT MPS 104906
2004 04 16.20943 12 00 06.73 -06 31 51.6 19.5   644 – Palomar Mountain/NEAT MPS 104906
2005 07 02.31353 20 35 25.34 -21 06 26.4 20.6 V 691 – Steward Observatory, Kitt Peak-Spacewatch MPS 137841
2005 07 02.33088 20 35 24.46 -21 06 28.0 20.6 V 691 – Steward Observatory, Kitt Peak-Spacewatch MPS 137841
2005 07 02.34836 20 35 23.64 -21 06 29.9 20.7 V 691 – Steward Observatory, Kitt Peak-Spacewatch MPS 137841
2005 07 07.31854 20 31 17.16 -21 15 18.6 20.7 V 691 – Steward Observatory, Kitt Peak-Spacewatch MPS 137841
2005 07 07.33581 20 31 16.21 -21 15 21.2 20.4 V 691 – Steward Observatory, Kitt Peak-Spacewatch MPS 137841
2005 07 07.35316 20 31 15.24 -21 15 23.4 20.5 V 691 – Steward Observatory, Kitt Peak-Spacewatch MPS 137841
2005 07 11.33183 20 27 36.48 -21 22 50.3 20.5 V 691 – Steward Observatory, Kitt Peak-Spacewatch MPS 138236
2005 07 11.34920 20 27 35.44 -21 22 52.5 20.3 V 691 – Steward Observatory, Kitt Peak-Spacewatch MPS 138236
2005 07 11.36999 20 27 34.21 -21 22 54.9 20.0 V 691 – Steward Observatory, Kitt Peak-Spacewatch MPS 138236
2006 11 18.37879 05 51 12.19 +29 59 36.0 19.7 V 691 – Steward Observatory, Kitt Peak-Spacewatch MPS 189992
2006 11 18.39615 05 51 11.50 +29 59 36.6 19.7 V 691 – Steward Observatory, Kitt Peak-Spacewatch MPS 189992
2006 11 18.41365 05 51 10.82 +29 59 37.9 20.9 V 691 – Steward Observatory, Kitt Peak-Spacewatch MPS 189992
2006 11 19.31021 05 50 36.95 +30 00 09.9 19.4   704 – Lincoln Laboratory ETS, New Mexico MPS 189992
